map of DKR home
DKR - Airport
Location
City:  Dakar, Dakar, Senegal
Near (Alt.):Yoff
Name:Léopold Sédar Senghor International Airport
Old (Alt.):Dakar Yoff International Airport
ICAO:GOOY
IATA:DKR

Details
Type:Airport (Aerodrome, Airfield)
Use:Public/Civil, Military, International (customs port of entry)
Latitude:14°44'23"N (14.739708)
Longitude:17°29'25"W (-17.490224)
Datum:WGS 1984
Elevation:85 ft (26 m)
Variation:7.36°W (WMM2015 magnetic declination)
0.11° annual change
Runways:2
Longest:11450 × 148 ft (3490 × 45 m), paved

Time
Time Zone:UTC+0
Local Time:

Weather
METAR:GOOY 180830Z 01009KT 7000 NSC 30/24 Q1014 NOSIG
TAF:GOOY 180530Z 1806/1912 34008KT CAVOK= TAF GBYD 180530Z 1806/1912 32008KT 9999 SCT013

Related Locations
Nearby:
Farthest:OLJ: 12178 mi / 19599 km
Olpoi [North West Santo], Espíritu Santo Island, SAM, VU

Find:

   beyond  
but within

Other Information
Maps:
NOTAMs:
Links:
Sources:

  
flag of Senegal   

Airport Diagram

Airport diagram for DKR

Larger airport diagram (OBSOLETE) from NGA

Sectional Chart

Flight Planning
at skyvector.com

Satellite Image

Google Maps Satellite view

 

Copyright © 2004-2017 Karl L. Swartz. All rights reserved.
The Great Circle Mapper name and logo are trademarks of the Great Circle Mapper.
All other trademarks mentioned herein belong to their respective owners.
Please see credits for attibutions and further copyright information.

  Follow gcmap on Facebook Follow gcmap on Twitter Follow gcmap on Google+ GCmap on LinkedIn

hCard Microformat

Geo Microformat